Location: ????
(55.2778°N, 39.2433°E)
Time: 16:09:11
(UTC+00:00)

Okean 1 - Pass Details

Date: 14 April 2024
Orbit: 507 x 529 km, 82.5° (Epoch: 24 May)

Event Time Altitude Azimuth Distance (km) Brightness Sun altitude
Exits shadow 00:57:46 16° 215° (SW) 1,408 4.8 -11.4°
Maximum altitude 01:00:37 49° 287° (WNW) 667 3.5 -11.0°
Drops below altitude 10° 01:04:20 10° 3° (N) 1,741 6.4 -10.6°
Sets 01:06:31 0° 9° (N) 2,631 7.5 -10.3°
